• In Belgium
  • List of Countries
  • For 7 days
  • Water Temperature
  • Satellite Maps
  • Weather Map
  • Weather Widgets
  • user-avatar
    Login

    Hourly Weather Kalgoorlie

    Today, 21 September, Thursday

    Time Temperature Precipitation Wind Pressure Humidity
    00:00 +19°C° 0 mm 3 mps 728 mmHg 58%
    01:00 +18°C° 0 mm 3 mps 728 mmHg 62%
    02:00 +17°C° 0 mm 3 mps 727 mmHg 65%
    03:00 +17°C° 0 mm 3 mps 727 mmHg 67%
    04:00 +17°C° 0 mm 2 mps 727 mmHg 69%
    05:00 +16°C° 0 mm 2 mps 727 mmHg 70%
    06:00 +18°C° 0 mm 3 mps 727 mmHg 64%
    07:00 +19°C° 0 mm 4 mps 727 mmHg 58%
    08:00 +21°C° 0 mm 7 mps 726 mmHg 49%
    09:00 +23°C° 0 mm 8 mps 725 mmHg 42%
    10:00 +26°C° 0 mm 9 mps 725 mmHg 36%
    11:00 +28°C° 0 mm 10 mps 724 mmHg 29%
    12:00 +29°C° 0 mm 11 mps 724 mmHg 26%
    13:00 +31°C° 0 mm 12 mps 723 mmHg 23%
    14:00 +32°C° 0 mm 13 mps 722 mmHg 20%
    15:00 +32°C° 0 mm 13 mps 722 mmHg 20%
    16:00 +31°C° 0 mm 13 mps 722 mmHg 20%
    17:00 +31°C° 0 mm 13 mps 722 mmHg 20%
    18:00 +28°C° 0 mm 11 mps 722 mmHg 24%
    19:00 +27°C° 0 mm 9 mps 723 mmHg 28%
    20:00 +24°C° 0 mm 8 mps 723 mmHg 32%
    21:00 +23°C° 0 mm 8 mps 723 mmHg 42%
    22:00 +21°C° 0 mm 7 mps 723 mmHg 52%
    23:00 +20°C° 0 mm 7 mps 723 mmHg 61%

    Tomorrow, 22 September, Friday

    Time Temperature Precipitation Wind Pressure Humidity
    00:00 +18°C° 0 mm 7 mps 723 mmHg 65%
    01:00 +19°C° 0 mm 6 mps 723 mmHg 69%
    02:00 +17°C° 0 mm 6 mps 723 mmHg 72%
    03:00 +17°C° 0 mm 6 mps 723 mmHg 73%
    04:00 +16°C° 0 mm 5 mps 723 mmHg 74%
    05:00 +16°C° 0 mm 5 mps 723 mmHg 75%
    06:00 +17°C° 0 mm 7 mps 723 mmHg 70%
    07:00 +17°C° 0 mm 8 mps 723 mmHg 64%
    08:00 +18°C° 0 mm 10 mps 723 mmHg 59%
    09:00 +18°C° 0 mm 11 mps 722 mmHg 56%
    10:00 +19°C° 0 mm 12 mps 722 mmHg 53%
    11:00 +19°C° 0 mm 13 mps 722 mmHg 51%
    12:00 +19°C° 0 mm 13 mps 721 mmHg 49%
    13:00 +19°C° 0 mm 14 mps 721 mmHg 48%
    14:00 +19°C° 0 mm 15 mps 720 mmHg 46%
    15:00 +18°C° 0.2 mm 15 mps 721 mmHg 50%
    16:00 +17°C° 0.2 mm 15 mps 721 mmHg 55%
    17:00 +15°C° 0.2 mm 14 mps 722 mmHg 59%
    18:00 +15°C° 0 mm 12 mps 722 mmHg 57%
    19:00 +14°C° 0 mm 10 mps 723 mmHg 55%
    20:00 +15°C° 0 mm 8 mps 724 mmHg 53%
    21:00 +13°C° 0 mm 8 mps 724 mmHg 57%
    22:00 +13°C° 0 mm 9 mps 724 mmHg 60%
    23:00 +12°C° 0 mm 9 mps 724 mmHg 64%

    Day after tomorrow, 23 September, Saturday

    Time Temperature Precipitation Wind Pressure Humidity
    00:00 +11°C° 0 mm 8 mps 725 mmHg 67%
    01:00 +11°C° 0 mm 8 mps 725 mmHg 70%
    02:00 +10°C° 0 mm 7 mps 725 mmHg 73%
    03:00 +10°C° 0 mm 7 mps 725 mmHg 76%
    04:00 +10°C° 0 mm 7 mps 725 mmHg 79%
    05:00 +9°C° 0 mm 6 mps 725 mmHg 81%
    06:00 +10°C° 0 mm 7 mps 726 mmHg 76%
    07:00 +10°C° 0 mm 8 mps 726 mmHg 70%
    08:00 +11°C° 0 mm 9 mps 727 mmHg 65%
    09:00 +11°C° 0 mm 9 mps 727 mmHg 60%
    10:00 +12°C° 0 mm 9 mps 727 mmHg 56%
    11:00 +12°C° 0 mm 9 mps 727 mmHg 52%
    12:00 +13°C° 0 mm 9 mps 727 mmHg 48%
    13:00 +15°C° 0 mm 9 mps 726 mmHg 45%
    14:00 +16°C° 0 mm 8 mps 726 mmHg 41%
    15:00 +16°C° 0 mm 8 mps 726 mmHg 40%
    16:00 +16°C° 0 mm 8 mps 726 mmHg 39%
    17:00 +16°C° 0 mm 7 mps 726 mmHg 38%
    18:00 +15°C° 0 mm 6 mps 726 mmHg 41%
    19:00 +14°C° 0 mm 5 mps 727 mmHg 44%
    20:00 +13°C° 0 mm 4 mps 727 mmHg 47%
    21:00 +13°C° 0 mm 4 mps 727 mmHg 48%
    22:00 +13°C° 0 mm 3 mps 727 mmHg 49%
    23:00 +13°C° 0 mm 3 mps 727 mmHg 51%

    24 September, Sunday

    Time Temperature Precipitation Wind Pressure Humidity
    00:00 +13°C° 0 mm 2 mps 726 mmHg 53%
    01:00 +13°C° 0 mm 2 mps 726 mmHg 55%
    02:00 +12°C° 0 mm 2 mps 725 mmHg 58%
    03:00 +12°C° 0 mm 2 mps 725 mmHg 58%
    04:00 +12°C° 0 mm 2 mps 725 mmHg 59%
    05:00 +12°C° 0 mm 2 mps 725 mmHg 60%
    06:00 +13°C° 0 mm 2 mps 725 mmHg 56%
    07:00 +13°C° 0 mm 3 mps 725 mmHg 53%
    08:00 +14°C° 0 mm 3 mps 726 mmHg 49%
    09:00 +16°C° 0 mm 5 mps 725 mmHg 45%
    10:00 +17°C° 0 mm 6 mps 725 mmHg 41%
    11:00 +18°C° 0 mm 8 mps 725 mmHg 38%
    12:00 +18°C° 0 mm 8 mps 724 mmHg 37%
    13:00 +18°C° 0 mm 7 mps 724 mmHg 37%
    14:00 +18°C° 0 mm 7 mps 723 mmHg 37%
    15:00 +17°C° 0.2 mm 6 mps 723 mmHg 42%
    16:00 +17°C° 0.2 mm 6 mps 723 mmHg 47%
    17:00 +16°C° 0.2 mm 5 mps 723 mmHg 52%
    18:00 +15°C° 0.1 mm 4 mps 723 mmHg 55%
    19:00 +16°C° 0.1 mm 3 mps 723 mmHg 57%
    20:00 +16°C° 0.1 mm 2 mps 724 mmHg 59%
    21:00 +15°C° 0 mm 2 mps 723 mmHg 61%
    22:00 +15°C° 0 mm 2 mps 723 mmHg 62%
    23:00 +15°C° 0 mm 2 mps 723 mmHg 63%

    25 September, Monday

    Time Temperature Precipitation Wind Pressure Humidity
    00:00 +13°C° 0 mm 3 mps 723 mmHg 65%
    01:00 +13°C° 0 mm 3 mps 723 mmHg 68%
    02:00 +12°C° 0 mm 3 mps 723 mmHg 70%
    03:00 +12°C° 0 mm 3 mps 723 mmHg 73%
    04:00 +12°C° 0 mm 2 mps 723 mmHg 76%
    05:00 +12°C° 0 mm 2 mps 723 mmHg 79%
    06:00 +13°C° 0 mm 2 mps 723 mmHg 75%
    07:00 +13°C° 0 mm 2 mps 724 mmHg 71%
    08:00 +14°C° 0 mm 1 mps 724 mmHg 67%
    09:00 +15°C° 0.1 mm 2 mps 723 mmHg 62%
    10:00 +16°C° 0.1 mm 3 mps 723 mmHg 57%
    11:00 +17°C° 0.1 mm 4 mps 722 mmHg 53%
    12:00 +17°C° 0.3 mm 5 mps 722 mmHg 49%
    13:00 +19°C° 0.3 mm 6 mps 721 mmHg 46%
    14:00 +20°C° 0.3 mm 7 mps 720 mmHg 42%
    15:00 +17°C° 1.3 mm 7 mps 720 mmHg 50%
    16:00 +16°C° 1.3 mm 8 mps 720 mmHg 58%
    17:00 +13°C° 1.3 mm 8 mps 720 mmHg 66%
    18:00 +13°C° 0.8 mm 8 mps 721 mmHg 68%
    19:00 +12°C° 0.8 mm 7 mps 721 mmHg 69%
    20:00 +11°C° 0.8 mm 6 mps 721 mmHg 70%
    21:00 +11°C° 0.2 mm 6 mps 721 mmHg 70%
    22:00 +12°C° 0.2 mm 5 mps 721 mmHg 69%
    23:00 +10°C° 0.2 mm 5 mps 721 mmHg 69%

    26 September, Tuesday

    Time Temperature Precipitation Wind Pressure Humidity
    00:00 +10°C° 0 mm 5 mps 721 mmHg 71%
    01:00 +10°C° 0 mm 5 mps 721 mmHg 72%
    02:00 +10°C° 0 mm 5 mps 720 mmHg 74%
    03:00 +10°C° 0 mm 5 mps 720 mmHg 74%
    04:00 +10°C° 0 mm 6 mps 720 mmHg 74%
    05:00 +9°C° 0 mm 7 mps 720 mmHg 75%
    06:00 +10°C° 0 mm 8 mps 720 mmHg 71%
    07:00 +11°C° 0 mm 9 mps 720 mmHg 68%
    08:00 +12°C° 0 mm 10 mps 721 mmHg 65%
    09:00 +13°C° 0 mm 10 mps 720 mmHg 56%
    10:00 +14°C° 0 mm 11 mps 720 mmHg 48%
    11:00 +17°C° 0 mm 11 mps 720 mmHg 39%
    12:00 +17°C° 0 mm 12 mps 720 mmHg 40%
    13:00 +15°C° 0 mm 12 mps 719 mmHg 42%
    14:00 +15°C° 0 mm 13 mps 719 mmHg 43%
    15:00 +15°C° 0 mm 13 mps 720 mmHg 46%
    16:00 +14°C° 0 mm 13 mps 720 mmHg 48%
    17:00 +14°C° 0 mm 12 mps 720 mmHg 51%
    18:00 +13°C° 0 mm 11 mps 721 mmHg 55%
    19:00 +12°C° 0 mm 10 mps 722 mmHg 60%
    20:00 +12°C° 0 mm 9 mps 723 mmHg 64%
    21:00 +11°C° 0 mm 8 mps 723 mmHg 67%
    22:00 +10°C° 0 mm 7 mps 723 mmHg 71%
    23:00 +10°C° 0 mm 7 mps 723 mmHg 74%
    Show more